Hourly Weather Rusocin

Today, 21 April, Wednesday

Time Temperature Precipitation Wind Pressure Humidity
00:00 +8°C° 0 mm 1 mps 757 mmHg 77%
01:00 +7°C° 0 mm 1 mps 756 mmHg 77%
02:00 +7°C° 0 mm 1 mps 756 mmHg 77%
03:00 +7°C° 0 mm 1 mps 756 mmHg 77%
04:00 +7°C° 0 mm 1 mps 756 mmHg 76%
05:00 +8°C° 0 mm 1 mps 756 mmHg 73%
06:00 +8°C° 0 mm 2 mps 756 mmHg 70%
07:00 +9°C° 0 mm 2 mps 756 mmHg 67%
08:00 +12°C° 0 mm 2 mps 755 mmHg 59%
09:00 +13°C° 0 mm 2 mps 755 mmHg 52%
10:00 +15°C° 0 mm 2 mps 755 mmHg 45%
11:00 +14°C° 0 mm 3 mps 755 mmHg 44%
12:00 +16°C° 0 mm 3 mps 754 mmHg 43%
13:00 +17°C° 0 mm 4 mps 754 mmHg 42%
14:00 +15°C° 0 mm 4 mps 754 mmHg 44%
15:00 +15°C° 0 mm 4 mps 754 mmHg 46%
16:00 +14°C° 0 mm 5 mps 754 mmHg 48%
17:00 +12°C° 0 mm 5 mps 754 mmHg 57%
18:00 +9°C° 0 mm 5 mps 754 mmHg 65%
19:00 +7°C° 0 mm 4 mps 754 mmHg 73%
20:00 +7°C° 0 mm 5 mps 754 mmHg 71%
21:00 +6°C° 0 mm 5 mps 754 mmHg 68%
22:00 +6°C° 0 mm 5 mps 754 mmHg 66%
23:00 +5°C° 0 mm 5 mps 754 mmHg 66%

Tomorrow, 22 April, Thursday

Time Temperature Precipitation Wind Pressure Humidity
00:00 +3°C° 0 mm 5 mps 754 mmHg 67%
01:00 +2°C° 0 mm 6 mps 754 mmHg 68%
02:00 +2°C° 0 mm 6 mps 754 mmHg 70%
03:00 0°C° 0 mm 7 mps 754 mmHg 72%
04:00 0°C° 0 mm 7 mps 754 mmHg 74%
05:00 0°C° 0 mm 7 mps 754 mmHg 72%
06:00 +1°C° 0 mm 8 mps 754 mmHg 69%
07:00 +2°C° 0 mm 8 mps 754 mmHg 67%
08:00 +3°C° 0.1 mm 9 mps 754 mmHg 64%
09:00 +3°C° 0.1 mm 9 mps 754 mmHg 60%
10:00 +5°C° 0.1 mm 9 mps 754 mmHg 57%
11:00 +5°C° 0.1 mm 9 mps 754 mmHg 56%
12:00 +5°C° 0.1 mm 9 mps 754 mmHg 55%
13:00 +5°C° 0.1 mm 9 mps 755 mmHg 53%
14:00 +5°C° 0.1 mm 9 mps 755 mmHg 56%
15:00 +3°C° 0.1 mm 9 mps 755 mmHg 58%
16:00 +4°C° 0.1 mm 8 mps 755 mmHg 60%
17:00 +2°C° 0 mm 8 mps 756 mmHg 63%
18:00 +3°C° 0 mm 7 mps 756 mmHg 65%
19:00 +2°C° 0 mm 7 mps 756 mmHg 68%
20:00 +2°C° 0 mm 6 mps 756 mmHg 70%
21:00 +2°C° 0 mm 6 mps 756 mmHg 72%
22:00 +2°C° 0 mm 6 mps 756 mmHg 74%
23:00 +2°C° 0 mm 6 mps 756 mmHg 72%

Day after tomorrow, 23 April, Friday

Time Temperature Precipitation Wind Pressure Humidity
00:00 +1°C° 0 mm 6 mps 757 mmHg 71%
01:00 +1°C° 0 mm 6 mps 757 mmHg 69%
02:00 +1°C° 0.1 mm 6 mps 757 mmHg 70%
03:00 +1°C° 0.1 mm 6 mps 757 mmHg 72%
04:00 +1°C° 0.1 mm 6 mps 757 mmHg 73%
05:00 +1°C° 0 mm 6 mps 757 mmHg 68%
06:00 +2°C° 0 mm 6 mps 758 mmHg 64%
07:00 +3°C° 0 mm 6 mps 758 mmHg 59%
08:00 +4°C° 0 mm 7 mps 758 mmHg 53%
09:00 +5°C° 0 mm 7 mps 758 mmHg 48%
10:00 +6°C° 0 mm 8 mps 759 mmHg 42%
11:00 +5°C° 0 mm 8 mps 759 mmHg 43%
12:00 +5°C° 0 mm 8 mps 760 mmHg 44%
13:00 +5°C° 0 mm 7 mps 760 mmHg 45%
14:00 +5°C° 0 mm 7 mps 761 mmHg 45%
15:00 +5°C° 0 mm 7 mps 761 mmHg 44%
16:00 +5°C° 0 mm 7 mps 761 mmHg 44%
17:00 +4°C° 0 mm 6 mps 762 mmHg 49%
18:00 +3°C° 0 mm 5 mps 762 mmHg 53%
19:00 +3°C° 0 mm 4 mps 762 mmHg 58%
20:00 +3°C° 0 mm 4 mps 762 mmHg 59%
21:00 +1°C° 0 mm 4 mps 762 mmHg 61%
22:00 +2°C° 0 mm 3 mps 762 mmHg 63%
23:00 +1°C° 0 mm 4 mps 762 mmHg 63%

24 April, Saturday

Time Temperature Precipitation Wind Pressure Humidity
00:00 +1°C° 0 mm 4 mps 762 mmHg 64%
01:00 +1°C° 0 mm 4 mps 762 mmHg 65%
02:00 0°C° 0 mm 4 mps 762 mmHg 68%
03:00 0°C° 0 mm 5 mps 762 mmHg 70%
04:00 0°C° 0 mm 5 mps 762 mmHg 72%
05:00 +1°C° 0 mm 5 mps 762 mmHg 69%
06:00 +2°C° 0 mm 5 mps 762 mmHg 65%
07:00 +3°C° 0 mm 5 mps 762 mmHg 62%
08:00 +4°C° 0 mm 6 mps 762 mmHg 55%
09:00 +5°C° 0 mm 6 mps 762 mmHg 48%
10:00 +7°C° 0 mm 6 mps 762 mmHg 40%
11:00 +5°C° 0 mm 7 mps 762 mmHg 40%
12:00 +5°C° 0 mm 7 mps 762 mmHg 40%
13:00 +5°C° 0 mm 8 mps 762 mmHg 39%
14:00 +5°C° 0 mm 7 mps 762 mmHg 40%
15:00 +4°C° 0 mm 7 mps 763 mmHg 41%
16:00 +4°C° 0 mm 7 mps 763 mmHg 41%
17:00 +3°C° 0 mm 6 mps 763 mmHg 46%
18:00 +2°C° 0 mm 6 mps 763 mmHg 50%
19:00 +1°C° 0 mm 5 mps 764 mmHg 54%
20:00 +1°C° 0 mm 5 mps 764 mmHg 58%
21:00 0°C° 0 mm 4 mps 764 mmHg 63%
22:00 -1°C° 0 mm 4 mps 764 mmHg 67%
23:00 -1°C° 0 mm 4 mps 764 mmHg 69%

25 April, Sunday

Time Temperature Precipitation Wind Pressure Humidity
00:00 -1°C° 0 mm 5 mps 764 mmHg 71%
01:00 -1°C° 0 mm 5 mps 763 mmHg 73%
02:00 -1°C° 0 mm 5 mps 763 mmHg 75%
03:00 -1°C° 0 mm 5 mps 763 mmHg 77%
04:00 -1°C° 0 mm 5 mps 763 mmHg 79%
05:00 +1°C° 0 mm 5 mps 763 mmHg 73%
06:00 +2°C° 0 mm 5 mps 763 mmHg 67%
07:00 +3°C° 0 mm 5 mps 763 mmHg 61%
08:00 +3°C° 0.1 mm 6 mps 763 mmHg 57%
09:00 +4°C° 0.1 mm 6 mps 763 mmHg 54%
10:00 +4°C° 0.1 mm 6 mps 763 mmHg 50%
11:00 +4°C° 0.2 mm 7 mps 763 mmHg 50%
12:00 +4°C° 0.2 mm 7 mps 763 mmHg 49%
13:00 +4°C° 0.2 mm 8 mps 763 mmHg 48%
14:00 +4°C° 0 mm 7 mps 763 mmHg 49%
15:00 +4°C° 0 mm 7 mps 763 mmHg 49%
16:00 +3°C° 0 mm 7 mps 763 mmHg 50%
17:00 +3°C° 0 mm 6 mps 763 mmHg 52%
18:00 +2°C° 0 mm 5 mps 763 mmHg 54%
19:00 +1°C° 0 mm 4 mps 763 mmHg 56%
20:00 +1°C° 0 mm 4 mps 763 mmHg 56%
21:00 +1°C° 0 mm 4 mps 763 mmHg 57%
22:00 +1°C° 0 mm 5 mps 763 mmHg 57%
23:00 +1°C° 0 mm 5 mps 763 mmHg 61%

26 April, Monday

Time Temperature Precipitation Wind Pressure Humidity
00:00 +1°C° 0 mm 5 mps 762 mmHg 64%
01:00 +1°C° 0 mm 5 mps 762 mmHg 67%
02:00 +1°C° 0 mm 5 mps 762 mmHg 67%
03:00 +1°C° 0 mm 5 mps 762 mmHg 67%
04:00 +2°C° 0 mm 5 mps 762 mmHg 66%
05:00 +2°C° 0 mm 6 mps 762 mmHg 67%
06:00 +2°C° 0 mm 6 mps 762 mmHg 67%
07:00 +3°C° 0 mm 7 mps 762 mmHg 68%
08:00 +3°C° 0 mm 7 mps 763 mmHg 68%
09:00 +4°C° 0 mm 6 mps 763 mmHg 68%
10:00 +4°C° 0 mm 6 mps 763 mmHg 68%
11:00 +4°C° 0 mm 6 mps 763 mmHg 67%
12:00 +6°C° 0 mm 5 mps 763 mmHg 67%
13:00 +6°C° 0 mm 5 mps 763 mmHg 66%
14:00 +6°C° 0 mm 5 mps 763 mmHg 65%
15:00 +6°C° 0 mm 4 mps 763 mmHg 64%
16:00 +6°C° 0 mm 4 mps 763 mmHg 63%
17:00 +5°C° 0 mm 3 mps 762 mmHg 67%
18:00 +3°C° 0 mm 3 mps 762 mmHg 72%
19:00 +3°C° 0 mm 2 mps 762 mmHg 76%
20:00 +3°C° 0 mm 1 mps 762 mmHg 79%
21:00 +2°C° 0 mm 1 mps 762 mmHg 82%
22:00 0°C° 0 mm 0 mps 762 mmHg 85%
23:00 +1°C° 0 mm 1 mps 761 mmHg 87%
Show more